Probability
0 0 0 0 0 0 0 0 0 0 0 0 0 0 0 0 0 0 0 0 0 0 0 0 0 0 3 0 0 0 0 0 0 0 0 0 0 0 0 0 0 0 0 0
0 0 0 0 0 0 0 0 0 0 0 0 0 0 0 0 0 0 0 0 0 0 0 0 0 0 0 0 0 0 0 0 0 0 0 0 0 0 0 0 0 0 0 0
0 0 0 0 0 0 0 0 0 0 0 0 0 0 0 0 0 0 0 0 0 0 0 0 0 0 0 0 0 0 0 0 0 0 0 0 0 0 0 0 0 0 0 0
0 0 0 0 0 0 0 0 0 0 0 0 0 0 0 0 0 0 0 0 0 0 0 0 0 0 0 0 0 0 0 0 0 0 0 0 0 0 0 0 0 0 0 0
0 0 0 0 0 0 0 0 0 0 0 0 0 0 0 0 0 0 0 0 0 0 0 0 0 0 0 0 0 0 0 0 0 0 0 0 0 0 0 0 0 0 0 0
0 0 0 0 0 0 0 0 0 0 0 0 0 0 0 0 0 0 0 0 0 0 0 0 0 0 0 0 0 0 0 0 0 0 0 0 0 0 0 0 0 0 0 0
0 0 0 0 0 0 0 0 0 0 0 0 0 0 0 0 0 0 0 0 0 0 0 0 0 0 0 0 0 0 0 0 0 0 0 0 0 0 0 0 0 0 0 0
0 0 0 0 0 0 0 0 0 0 0 0 0 0 0 0 0 0 0 0 0 0 0 0 0 0 0 0 0 0 0 0 0 0 0 0 0 0 0 0 0 0 0 0
0 0 0 0 0 0 0 0 0 0 0 0 0 0 0 0 0 0 0 0 0 0 0 0 0 0 0 0 0 0 0 0 0 0 0 0 0 0 0 0 0 0 0 0
0 0 0 0 0 0 0 0 0 0 0 0 0 0 0 0 0 0 0 0 0 0 0 0 0 0 0 0 0 0 0 0 0 0 0 0 0 0 0 0 0 0 0 0
0 0 0 0 0 0 0 0 0 0 0 0 0 0 0 0 0 0 0 0 0 0 0 0 0 0 0 0 0 0 0 0 0 0 0 0 0 0 0 0 0 0 0 0
0 0 0 0 0 0 0 0 0 0 0 0 0 0 0 0 0 0 0 0 0 0 0 0 0 0 0 0 0 0 0 0 0 0 0 0 0 0 0 0 0 0 0 0
0 0 0 0 0 0 0 0 0 0 0 0 0 0 0 0 0 0 0 0 0 0 0 0 0 0 0 0 0 0 0 0 0 0 0 0 0 0 0 0 0 0 0 0
0 0 0 0 0 0 0 0 0 0 0 0 0 0 0 0 0 0 0 0 0 0 0 0 0 0 0 0 0 0 0 0 0 0 0 0 0 0 0 0 0 0 0 0
0 0 0 0 0 0 0 0 0 0 0 0 0 0 0 0 0 0 0 0 0 0 0 0 0 0 0 0 0 0 0 0 0 0 0 0 0 0 0 0 0 0 0 0
0 0 0 0 0 0 0 0 0 0 0 0 0 0 0 0 0 0 0 0 0 0 0 0 0 0 0 0 0 0 0 0 0 0 0 0 0 0 0 0 0 0 0 0
0 0 0 0 0 0 0 0 0 0 0 0 0 0 0 0 0 0 0 0 0 0 0 0 0 0 0 0 0 0 0 0 0 0 0 0 0 0 0 0 0 0 0 0
0 0 0 0 0 0 0 0 0 0 0 0 0 0 0 0 0 0 0 0 0 0 0 0 0 0 0 0 0 0 0 0 0 0 0 0 0 0 0 0 0 0 0 0
0 0 0 0 0 0 0 0 0 0 0 0 0 0 0 0 0 0 0 0 0 0 0 0 0 0 0 0 0 0 0 0 0 0 0 0 0 0 0 0 0 0 0 0
0 0 0 0 0 0 0 0 0 0 0 0 0 0 0 0 0 0 0 0 0 0 0 0 0 0 0 0 0 0 0 0 0 0 0 0 0 0 0 0 0 0 0 0
0 0 0 0 0 0 0 0 0 0 0 0 0 0 0 0 0 0 0 0 0 0 0 0 0 0 0 0 0 0 0 0 0 0 0 0 0 0 0 0 0 0 0 0
0 0 0 0 0 0 0 0 0 0 0 0 0 0 0 0 0 0 0 0 0 0 0 0 0 0 0 0 0 0 0 0 0 0 0 0 0 0 0 0 0 0 0 0
0 0 0 0 0 0 0 0 0 0 0 0 0 0 0 0 0 0 0 0 0 0 0 0 0 0 0 0 0 0 0 0 0 0 0 0 0 0 0 0 0 0 0 0
0 0 0 0 0 0 0 0 0 0 0 0 0 0 0 0 0 0 0 0 0 0 0 0 0 0 0 0 0 0 0 0 0 0 0 0 0 0 0 0 0 0 0 0
0 0 0 0 0 0 0 0 0 0 0 0 0 0 0 0 0 0 0 0 0 0 0 0 0 0 0 0 0 0 0 0 0 0 0 0 0 0 0 0 0 0 0 0
0 0 0 0 0 0 0 0 0 0 0 0 0 0 0 0 0 0 0 0 0 0 0 0 0 0 0 0 0 0 0 0 0 0 0 0 0 0 0 0 0 0 0 0
Height
5840 5841 5841 5841 5841 5841 5841 5841 5841 5841 5841 5841 5841 5841 5841 5840 5840 5840 5840 5840 5840 5840 5840 5840 5840 5840 5840 5840 5840 5840 5839 5838 5838 5837 5837 5836 5835 5835 5834 5833 5832 5831 5830 5830
5839 5839 5839 5839 5839 5839 5839 5840 5840 5839 5839 5839 5839 5839 5838 5838 5838 5838 5837 5837 5837 5837 5838 5838 5837 5837 5837 5837 5837 5837 5836 5836 5835 5835 5834 5833 5832 5832 5831 5830 5829 5828 5827 5826
5836 5837 5836 5836 5837 5837 5837 5838 5837 5837 5837 5836 5837 5837 5837 5836 5835 5835 5835 5835 5835 5835 5835 5835 5835 5835 5834 5835 5835 5834 5834 5833 5832 5832 5831 5830 5829 5828 5827 5826 5825 5824 5823 5822
5833 5833 5833 5834 5834 5834 5835 5835 5835 5835 5835 5835 5835 5835 5835 5834 5833 5833 5833 5833 5832 5832 5832 5832 5832 5832 5832 5832 5831 5831 5831 5830 5829 5828 5827 5827 5826 5825 5824 5823 5822 5821 5819 5818
5830 5830 5831 5831 5832 5832 5832 5832 5832 5832 5832 5833 5832 5832 5833 5832 5831 5831 5830 5830 5830 5829 5829 5829 5829 5829 5829 5828 5828 5828 5827 5827 5826 5825 5824 5823 5822 5821 5820 5819 5818 5816 5815 5813
5827 5827 5828 5828 5828 5829 5829 5829 5829 5829 5829 5830 5830 5829 5830 5829 5828 5828 5828 5827 5827 5827 5827 5826 5826 5825 5825 5825 5825 5825 5824 5823 5822 5821 5820 5819 5818 5817 5816 5815 5813 5812 5810 5809
5824 5824 5824 5825 5825 5825 5826 5826 5826 5826 5826 5827 5827 5826 5827 5825 5825 5825 5824 5824 5824 5824 5823 5823 5823 5822 5822 5822 5821 5821 5820 5819 5819 5818 5816 5815 5814 5813 5811 5810 5809 5807 5806 5804
5820 5821 5821 5821 5822 5822 5822 5823 5823 5823 5823 5823 5823 5823 5824 5822 5821 5821 5821 5821 5820 5820 5820 5820 5819 5819 5818 5818 5818 5817 5816 5816 5815 5814 5812 5811 5810 5808 5807 5805 5804 5802 5801 5800
5815 5817 5818 5817 5818 5819 5819 5819 5819 5819 5819 5819 5819 5820 5820 5819 5818 5817 5817 5817 5817 5817 5816 5816 5815 5815 5814 5814 5814 5813 5812 5811 5811 5809 5808 5807 5805 5804 5802 5800 5799 5797 5796 5795
5811 5812 5813 5814 5814 5815 5815 5815 5815 5815 5815 5815 5816 5816 5817 5815 5814 5814 5813 5813 5813 5813 5812 5812 5811 5811 5810 5810 5809 5809 5808 5807 5806 5805 5803 5802 5800 5799 5796 5795 5794 5792 5791 5790
5806 5807 5809 5809 5810 5810 5811 5812 5811 5811 5811 5811 5811 5815 5812 5811 5811 5810 5810 5809 5809 5808 5808 5807 5807 5806 5805 5805 5805 5804 5803 5802 5801 5799 5798 5796 5795 5793 5791 5790 5788 5787 5786 5784
5801 5803 5804 5805 5806 5806 5807 5807 5807 5808 5807 5807 5807 5811 5808 5807 5806 5806 5805 5805 5804 5804 5803 5802 5802 5801 5800 5800 5799 5799 5797 5796 5795 5794 5792 5791 5789 5788 5786 5784 5783 5781 5780 5779
5797 5798 5799 5800 5803 5803 5802 5803 5803 5803 5803 5802 5802 5806 5804 5803 5802 5801 5801 5800 5800 5799 5799 5798 5797 5796 5795 5794 5793 5792 5791 5790 5789 5788 5786 5785 5784 5782 5781 5779 5777 5776 5774 5773
5792 5793 5795 5796 5796 5797 5797 5798 5798 5798 5798 5798 5798 5799 5799 5798 5797 5797 5796 5795 5795 5794 5793 5793 5792 5791 5790 5789 5787 5786 5785 5784 5783 5782 5781 5779 5778 5776 5775 5773 5771 5769 5768 5766
5787 5788 5789 5790 5791 5791 5792 5793 5793 5793 5793 5793 5794 5793 5793 5793 5792 5792 5791 5790 5789 5789 5788 5787 5786 5785 5784 5783 5782 5781 5779 5778 5777 5776 5774 5773 5772 5770 5768 5766 5764 5762 5761 5760
5783 5784 5785 5786 5786 5786 5787 5788 5788 5788 5788 5788 5788 5789 5788 5787 5787 5786 5785 5785 5784 5783 5782 5781 5780 5779 5778 5777 5776 5774 5773 5772 5770 5769 5768 5766 5764 5762 5761 5759 5757 5755 5753 5752
5778 5779 5780 5781 5781 5781 5782 5784 5784 5784 5784 5784 5783 5784 5782 5782 5781 5780 5780 5779 5778 5777 5776 5775 5774 5773 5772 5770 5769 5768 5766 5765 5763 5762 5760 5758 5757 5754 5753 5751 5749 5747 5745 5743
5773 5773 5774 5775 5776 5776 5780 5779 5778 5778 5778 5778 5777 5777 5776 5775 5775 5774 5773 5772 5771 5770 5769 5768 5767 5766 5764 5763 5762 5760 5759 5757 5756 5754 5752 5751 5749 5746 5744 5742 5740 5739 5737 5735
5767 5768 5768 5769 5769 5771 5773 5773 5773 5773 5773 5772 5771 5771 5770 5769 5768 5768 5767 5766 5765 5764 5763 5761 5760 5758 5757 5755 5754 5752 5751 5749 5748 5746 5744 5742 5740 5738 5736 5734 5732 5730 5728 5726
5762 5762 5763 5763 5763 5765 5768 5767 5766 5767 5767 5767 5765 5764 5764 5763 5763 5763 5761 5759 5758 5757 5756 5754 5753 5751 5749 5748 5746 5744 5743 5741 5739 5738 5736 5733 5731 5729 5727 5725 5723 5721 5719 5717
5756 5756 5757 5757 5757 5759 5761 5760 5761 5762 5762 5760 5759 5758 5757 5756 5756 5756 5754 5753 5751 5750 5748 5747 5745 5743 5741 5740 5738 5736 5734 5732 5731 5729 5727 5724 5722 5720 5718 5716 5714 5712 5710 5709
5750 5750 5751 5751 5752 5755 5754 5754 5755 5755 5754 5753 5752 5752 5751 5750 5749 5748 5747 5746 5744 5743 5741 5739 5737 5735 5733 5731 5729 5727 5726 5724 5722 5720 5718 5715 5713 5711 5709 5707 5705 5703 5701 5700
5743 5744 5744 5746 5747 5747 5747 5747 5747 5747 5747 5746 5746 5745 5744 5743 5742 5741 5740 5739 5737 5735 5733 5732 5730 5727 5725 5723 5721 5719 5717 5715 5713 5711 5709 5707 5704 5702 5700 5698 5696 5694 5692 5690
5737 5737 5738 5738 5739 5739 5740 5740 5740 5740 5740 5739 5739 5738 5737 5737 5736 5734 5733 5731 5730 5728 5726 5724 5722 5720 5717 5715 5713 5711 5709 5706 5704 5702 5700 5698 5695 5693 5691 5688 5686 5684 5682 5681
5730 5730 5730 5731 5732 5732 5733 5733 5733 5733 5733 5732 5732 5731 5730 5729 5729 5727 5726 5724 5722 5720 5718 5716 5714 5712 5710 5707 5705 5703 5700 5698 5696 5694 5691 5689 5687 5684 5681 5679 5677 5675 5673 5671
5723 5723 5723 5724 5725 5725 5726 5725 5725 5725 5725 5725 5724 5724 5723 5722 5721 5720 5718 5717 5715 5713 5711 5709 5707 5704 5702 5699 5697 5694 5692 5689 5687 5685 5683 5680 5678 5675 5673 5670 5667 5665 5663 5661
Wind_Speed
9 8 8 9 9 9 9 9 9 8 8 9 9 9 9 9 9 9 9 9 9 10 9 9 10 10 10 9 9 9 9 9 9 9 10 11 11 11 12 12 12 13 13 13
10 9 9 10 10 10 10 10 9 9 10 9 9 9 9 9 9 9 10 10 10 10 10 10 10 11 10 10 10 10 10 10 10 11 11 12 12 12 12 13 13 14 14 14
10 10 11 11 11 11 10 10 10 10 10 10 10 10 10 10 10 9 9 10 11 11 11 11 11 11 11 10 10 11 11 11 11 12 13 13 12 13 13 13 13 14 14 15
12 12 13 13 12 12 11 11 11 12 12 11 12 10 10 10 9 9 10 10 11 11 12 12 12 12 12 11 11 12 12 12 12 13 13 13 13 13 14 14 14 14 14 15
12 13 13 13 12 13 12 13 13 14 13 13 13 12 10 11 11 11 11 12 12 12 12 12 12 13 12 12 12 13 13 13 13 14 14 14 14 15 15 15 15 15 15 15
14 13 13 13 13 13 13 14 14 15 14 13 13 12 11 11 11 12 12 13 13 13 13 12 13 13 13 13 14 14 14 14 14 14 15 15 15 16 16 16 16 16 16 15
15 14 14 14 14 14 14 14 15 16 15 14 14 13 12 12 12 13 13 13 13 13 13 13 14 14 14 15 15 15 14 15 15 15 15 16 16 17 17 17 17 16 16 16
16 16 15 15 15 15 14 15 16 17 16 15 15 14 12 13 13 13 13 13 13 13 13 14 14 15 15 15 15 15 15 16 16 16 16 17 17 17 17 17 17 17 16 16
17 17 16 16 16 16 15 15 16 17 17 17 16 15 14 14 15 15 14 14 14 14 14 14 15 15 16 16 16 17 17 17 17 18 18 18 17 17 17 17 17 18 17 17
18 17 17 17 17 17 16 16 16 17 17 16 16 15 14 14 15 16 15 15 15 15 15 15 16 16 16 16 17 18 18 18 19 20 19 19 18 18 18 18 18 18 18 17
17 18 18 18 18 17 17 17 17 18 18 18 17 15 15 16 15 16 16 16 16 16 16 17 18 17 17 17 18 19 19 20 20 20 20 21 20 19 19 19 19 18 18 18
18 19 19 18 17 17 18 18 18 18 18 19 19 17 16 17 17 17 17 17 17 18 17 17 18 18 18 18 18 19 19 20 20 20 21 22 21 20 20 21 20 20 20 20
18 19 19 19 18 18 18 19 19 19 19 19 19 18 17 18 18 18 19 19 19 19 19 18 18 19 19 19 19 19 20 20 20 21 22 20 20 20 21 21 21 21 21 21
18 19 19 19 18 19 19 19 18 18 19 19 18 18 18 18 19 19 19 20 20 20 20 20 19 19 20 20 20 20 21 21 21 21 21 21 21 21 22 22 22 22 23 22
19 19 19 19 18 19 19 18 18 18 19 19 18 19 18 18 19 20 20 21 21 20 21 21 21 20 20 21 21 22 22 22 22 23 22 22 23 23 23 24 24 24 24 24
19 20 20 19 19 19 18 19 19 19 19 19 20 19 19 20 20 20 20 20 21 21 21 22 22 22 22 22 22 23 23 23 24 24 23 24 24 24 25 25 26 26 26 26
20 21 20 20 19 20 20 20 20 20 20 21 21 20 20 21 21 20 20 20 21 22 22 23 23 23 24 24 24 24 24 24 25 25 25 25 25 25 26 27 27 27 27 27
21 21 21 21 21 22 19 19 20 21 20 21 21 21 21 21 21 21 21 21 22 23 23 24 25 25 25 25 25 25 25 26 26 26 26 26 26 27 27 28 28 28 28 28
21 22 22 22 23 22 20 20 20 21 21 21 22 22 21 21 22 22 22 22 22 23 23 24 24 25 26 26 26 26 27 27 27 27 27 27 28 28 29 29 29 30 29 29
23 23 23 23 23 23 21 21 22 22 21 21 22 23 22 22 22 22 22 23 23 23 24 25 25 26 26 26 27 27 28 28 29 28 28 28 28 28 29 29 30 30 30 30
24 24 24 24 24 23 22 22 22 22 21 21 22 23 22 22 22 22 23 24 24 24 24 25 26 26 27 27 28 29 29 29 29 29 28 29 29 29 29 29 29 30 30 30
25 25 25 24 24 23 22 22 23 23 22 22 22 22 22 22 22 23 23 24 24 24 25 26 26 26 27 27 28 29 29 29 29 29 29 29 29 29 29 29 29 30 30 30
25 25 25 24 24 24 24 24 24 24 23 23 22 22 22 22 22 23 24 24 25 25 26 26 26 26 27 28 28 29 29 29 29 29 29 29 29 30 29 29 29 30 31 31
25 25 25 25 25 25 25 25 25 25 24 24 24 24 23 22 22 23 24 25 25 26 26 26 26 27 27 28 28 29 29 29 29 29 29 29 29 29 29 29 29 30 31 31
26 25 25 25 25 25 25 25 26 26 25 24 24 24 24 24 24 24 25 25 25 26 26 26 26 27 28 29 29 28 29 28 29 29 29 29 28 29 29 29 29 30 30 31
25 26 27 27 26 26 24 25 26 25 25 25 25 25 25 24 24 25 25 25 26 26 26 27 27 27 28 29 29 29 29 29 29 30 29 29 29 29 29 30 30 30 31 32
Wind_Direction
259 259 260 261 264 265 267 270 275 277 275 268 269 274 275 271 268 267 264 261 259 262 264 265 271 274 271 272 276 279 282 284 284 286 285 287 290 289 288 289 291 290 291 291
257 257 257 258 261 263 267 270 270 270 275 274 274 276 276 277 275 270 267 265 263 264 265 267 270 271 269 272 276 280 283 283 284 284 285 287 286 289 290 289 290 291 292 292
261 257 256 257 261 262 265 271 273 273 275 277 277 276 275 276 274 273 271 268 267 267 266 266 267 269 271 272 275 280 283 285 285 286 288 288 288 289 289 290 294 293 292 289
259 257 256 259 262 264 265 268 270 272 274 275 276 278 275 276 274 273 271 269 268 266 266 268 271 272 272 273 275 279 284 287 286 288 289 290 289 290 290 289 291 293 291 290
261 261 260 260 262 263 265 267 270 272 272 272 274 277 276 274 270 270 270 269 267 266 267 270 274 274 271 271 276 281 283 285 287 288 290 290 290 292 292 290 291 291 289 289
260 260 262 262 260 262 264 265 267 270 271 271 273 276 276 275 271 270 269 268 268 270 271 273 273 273 271 272 276 280 284 285 286 287 290 291 290 292 291 291 291 290 289 288
258 258 259 260 260 263 265 265 267 269 270 272 272 274 276 279 274 271 269 268 268 269 270 271 274 274 272 274 276 278 282 284 285 287 291 294 293 292 291 290 290 289 289 288
261 259 259 259 260 264 267 268 270 272 272 272 271 271 272 276 274 272 270 270 269 269 270 273 277 276 274 275 276 278 282 283 285 289 293 294 294 295 293 291 288 288 287 287
260 258 257 258 261 263 267 269 271 273 274 273 271 272 271 272 272 270 269 269 271 271 272 276 279 278 275 276 278 279 280 282 284 288 291 291 292 292 291 290 288 287 284 285
260 258 256 256 257 259 262 267 271 275 276 276 274 274 274 269 267 268 270 269 271 274 278 278 280 280 276 276 279 280 280 283 286 287 286 287 289 290 289 288 287 286 285 285
256 256 255 257 258 259 260 264 269 271 274 276 275 274 275 274 272 271 273 273 272 274 278 279 280 280 278 277 278 281 282 283 284 285 284 285 287 288 288 288 286 284 284 286
256 256 257 257 258 258 261 265 267 270 273 274 276 275 274 275 276 276 276 275 275 274 277 279 280 280 278 277 278 279 281 281 282 285 286 285 285 286 287 287 287 285 284 284
256 258 259 258 259 260 262 265 267 271 272 273 275 276 273 275 275 277 278 277 279 279 278 280 280 280 281 280 281 283 284 282 282 284 286 287 285 286 287 287 286 284 283 284
256 257 258 261 262 261 261 264 267 269 271 273 276 276 275 275 276 277 277 278 280 281 280 280 280 282 283 282 282 283 285 285 284 283 285 286 286 286 287 287 285 284 283 283
257 257 259 260 259 260 262 263 266 267 270 273 276 276 276 277 277 278 279 279 280 281 281 281 282 283 285 285 284 285 285 286 286 285 287 286 286 286 285 285 284 284 284 283
257 256 257 258 260 260 261 264 269 270 271 272 274 277 276 276 277 278 279 279 279 280 280 281 282 284 286 286 286 287 287 286 286 286 287 287 287 287 286 284 284 283 284 284
254 255 257 259 261 262 261 265 271 273 274 276 278 278 277 277 277 278 278 278 279 280 281 282 282 284 285 285 286 286 287 287 287 286 285 287 288 288 288 286 285 285 285 283
256 257 258 261 263 260 263 265 269 272 274 276 278 279 280 280 279 278 279 279 280 281 282 283 284 285 285 285 285 286 286 286 287 287 286 287 287 288 288 288 287 287 287 285
258 258 260 263 265 266 266 268 270 273 275 277 279 280 283 281 278 279 280 281 281 281 283 285 286 286 287 287 286 286 288 288 289 288 288 288 289 289 288 288 287 287 286 286
258 259 261 264 266 267 271 272 272 273 276 280 281 281 281 281 279 279 280 281 282 283 284 286 287 287 288 288 288 288 288 288 289 290 290 290 291 290 289 287 286 285 285 284
258 261 262 263 266 268 270 272 274 275 279 281 283 283 281 281 281 281 281 283 283 284 284 286 287 287 288 288 289 289 288 288 289 290 290 290 291 291 289 287 286 285 283 282
259 261 262 264 265 267 270 273 276 277 280 282 282 282 281 281 282 283 284 284 284 285 286 287 287 287 289 290 290 290 289 289 289 288 289 290 290 291 289 287 286 285 283 282
260 260 263 264 266 268 269 271 274 277 280 281 281 280 280 280 282 283 284 285 286 286 286 286 287 288 290 291 291 291 291 291 289 289 289 290 290 291 289 287 286 284 283 282
261 262 264 265 265 266 268 270 272 276 279 281 281 280 281 281 282 284 286 287 288 287 287 288 289 290 291 293 292 293 293 291 290 290 291 291 291 292 291 288 285 285 285 283
262 264 264 264 264 266 267 269 271 273 276 278 280 281 282 284 284 285 287 288 289 289 288 290 292 293 292 293 294 293 293 292 291 291 291 291 291 292 291 290 289 288 286 285
264 264 264 264 265 267 269 270 270 273 275 277 279 280 281 281 282 282 284 287 289 289 291 293 293 294 294 294 294 294 293 294 293 292 291 291 291 292 292 292 291 289 288 286